Flag for China Weather past 2 weeks in Guangzhou, Guangdong, China

Now
79 °F

Fog.


Feels Like: 82 °F
Forecast: 82 / 93 °F
Wind: No wind

Location: Canton Airport

Current Time: Jul 25, 2014 at 4:41:58 AM

Latest Report: Jul 25, 2014 at 4:00 AM


Visibility: 3 mi

Pressure: 29.65 "Hg

Humidity: 89%

Dew point: 75 °F

Location of GuangzhouLocation

Historic Weather in Guangzhou — Graph

°F

Guangzhou temperature yesterday

Maximum temperature yesterday: 99 °F (at 3:00 PM)
Minimum temperature yesterday: 79 °F (at 9:30 PM)
Average temperature yesterday: 88 °F

Past Weeks' High & Low Weather Summary

 TemperatureHumidityPressure
High99 °F (Jul 22, 3:30 PM)100% (Jul 12, 4:30 PM)29.83 "Hg (Jul 12, 4:30 PM)
Low77 °F (Jul 12, 4:30 PM)42% (Jul 22, 5:30 PM)29.42 "Hg (Jul 23, 4:00 PM)
Average86 °F76%29.68 "Hg
* Reported Jul 10 3:00 AM — Jul 25 3:30 AM, Guangzhou, Weather by CustomWeather, © 2014

Note: Actual official high and low records may vary slightly from our data, if they occured in-between our weather recording intervals... More about our weather records

Advertising

Guangzhou weather history for previous 24 hours

 ConditionsComfort  
Time TempWeatherWind HumidityBarometerVisibility
3:30 AM
Jul 25
79 °FFog.1 mph89%29.65 "Hg3 mi
3:00 AM79 °FFog.1 mph89%29.65 "Hg3 mi
2:30 AM79 °FPassing clouds.1 mph89%29.65 "Hg4 mi
2:00 AM79 °FPassing clouds.6 mph89%29.65 "Hg4 mi
1:30 AM79 °FSprinkles. Fog.1 mph89%29.65 "Hg3 mi
1:00 AM79 °FSprinkles. Passing clouds.8 mph89%29.65 "Hg4 mi
12:30 AM79 °FSprinkles. Passing clouds.8 mph84%29.65 "Hg5 mi
12:00 AM79 °FThunderstorms. Passing clouds.10 mph84%29.68 "Hg5 mi
11:30 PM
Jul 24
81 °FThunderstorms. Passing clouds.8 mph79%29.65 "Hg5 mi
11:00 PM79 °FThunderstorms. Passing clouds.10 mph84%29.68 "Hg5 mi
10:30 PM81 °FSprinkles. Passing clouds.3 mph79%29.62 "Hg5 mi
10:00 PM81 °FPassing clouds.8 mph84%29.62 "Hg5 mi
9:30 PM79 °FSprinkles. Passing clouds.6 mph94%29.59 "Hg4 mi
9:00 PM81 °FThunderstorms. Passing clouds.6 mph89%29.59 "Hg4 mi
8:30 PM82 °FThunderstorms. Passing clouds.3 mph79%29.56 "Hg4 mi
8:00 PM82 °FThunderstorms. Passing clouds.6 mph79%29.59 "Hg5 mi
7:30 PM82 °FThunderstorms. Passing clouds.8 mph74%29.56 "Hg4 mi
7:00 PM86 °FThunderstorms. Partly sunny.15 mph62%29.53 "Hg5 mi
6:30 PM88 °FPartly sunny.3 mph59%29.50 "HgN/A
6:00 PM86 °FPartly sunny.6 mph62%29.47 "Hg5 mi
5:30 PM88 °FPartly sunny.17 mph59%29.47 "Hg5 mi
5:00 PM91 °FScattered clouds.17 mph46%29.47 "Hg5 mi
4:30 PM99 °FScattered clouds.10 mph53%29.45 "Hg4 mi
4:00 PM99 °FScattered clouds.8 mph50%29.45 "Hg4 mi
3:30 PM99 °FScattered clouds.8 mph50%29.45 "Hg4 mi
3:00 PM99 °FScattered clouds.6 mph57%29.47 "Hg4 mi
2:30 PM97 °FScattered clouds.8 mph56%29.47 "Hg4 mi
1:30 PM97 °FClear.6 mph60%29.50 "Hg4 mi
1:00 PM95 °FClear.6 mph60%29.53 "Hg4 mi
12:30 PM95 °FClear.3 mph63%29.53 "Hg4 mi
12:00 PM95 °FClear.6 mph60%29.53 "Hg4 mi
11:30 AM93 °FClear.6 mph63%29.53 "Hg4 mi
11:00 AM93 °FClear.6 mph63%29.53 "Hg4 mi
10:30 AM91 °FClear.8 mph71%29.53 "Hg4 mi
10:00 AM91 °FClear.6 mph67%29.53 "Hg4 mi
9:30 AM90 °FClear.8 mph71%29.53 "Hg4 mi
9:00 AM90 °FClear.8 mph71%29.50 "Hg4 mi
8:30 AM88 °FClear.8 mph75%29.50 "Hg4 mi
8:00 AM88 °FClear.6 mph75%29.50 "Hg4 mi
7:30 AM86 °FClear.3 mph79%29.50 "Hg4 mi
7:00 AM86 °FClear.6 mph79%29.50 "Hg4 mi
6:30 AM84 °FClear.6 mph84%29.47 "Hg4 mi
6:00 AM84 °FClear.6 mph84%29.47 "Hg4 mi
5:30 AM84 °FClear.3 mph84%29.47 "Hg5 mi
5:00 AM86 °FClear.6 mph75%29.47 "Hg5 mi
4:30 AM86 °FClear.6 mph75%29.47 "Hg5 mi
4:00 AM86 °FClear.6 mph75%29.45 "Hg5 mi
Weather by CustomWeather, © 2014

See weather overviewHow to use our weather pages